Bangkok (Don Mueang), Thailand

10:36 AM ICT on May 25, 2015 (GMT +0700)
Khu Khot | | Change Station
CLOSE
Current Station
Personal Weather Station
Location: Pathum Thani, PATHUM THANI
Elevation: 15 ft
Nearby Weather Stations

Elev 15 ft 13.96 °N, 100.65 °E | Updated 1 minute ago

Mostly Cloudy
Mostly Cloudy
94.8 °F
Feels Like 110 °F
N
2.2
Wind Variable Wind from ESE
Gusts 4.7 mph

Today
High -- | Low -- °F
--% Chance of Precip.
Yesterday
High -- | Low -- °F
Precip. -- in
5:49 AM 6:39 PM
Waxing Crescent, 44% visible
Pressure 29.77 in
Visibility 6.2 miles
Clouds Few 2000 ft
Scattered Clouds 4000 ft
Mostly Cloudy 30000 ft
Heat Index 110 °F
Dew Point 77 °F
Humidity 57%
Rainfall 0.00 in
Snow Depth Not available.
UV 8 out of 12
Pollen Not available.
Air Quality Not available.
Flu Activity Not available.
METAR VTBD 250330Z 24008KT 180V340 9999 FEW020 SCT040 BKN300 34/22 Q1008 NOSIG

More Conditions Fewer Conditions

Pressure 29.77 in
Visibility 6.2 miles
Clouds Few 2000 ft
Scattered Clouds 4000 ft
Mostly Cloudy 30000 ft
Heat Index 110 °F
Dew Point 77 °F
Humidity 57%
Rainfall 0.00 in
Snow Depth Not available.
UV 8 out of 12
Pollen Not available.
Air Quality Not available.
Flu Activity Not available.
METAR VTBD 250330Z 24008KT 180V340 9999 FEW020 SCT040 BKN300 34/22 Q1008 NOSIG

More Conditions Fewer Conditions

10-Day Weather Forecast

Almanac

Astronomy

May. 25, 2015 Rise Set
Actual Time
Civil Twilight
Nautical Twilight
Astronomical Twilight
Moon
Length of Visible Light
Length of Day
Tomorrow will be .
, % of the Moon is Illuminated

Today's Extremes

Country Highs Country Lows

Community

WunderPhotos

Upload Photos

1,823,947 photos uploaded!

WunderBlogs® & News

Nearby

Air Quality

  Air Quality AQ Index Pollutant
Not available.

Snow Depth

Station Depth Elevation

Earthquake Activity

City Distance Mag. Time & Date
Minimum magnitude displayed is 2.5.

Coastal Water Temperatures

Place Temperature

Stations

Nearby Weather Stations

Station Location Temp. Windchill Dew Point Humidity Wind Precip. Elev Updated Type